Parkersburg, WV

1:07 PM EST on November 20, 2017 (GMT -0500)
Wood County Wilson

Weather History for KPKB - May, 2013

Change the Weather History Date:

Sunday, May 12, 2013

  Actual Average Record
Temperature  
Mean Temperature 48 °F 61 °F  
Max Temperature 56 °F 73 °F 90 °F (1982)
Min Temperature 40 °F 49 °F 31 °F (1938)
Degree Days  
Heating Degree Days 17 5  
Month to date heating degree days 40 75  
Since 1 July heating degree days 4910 4881  
Cooling Degree Days 0 2  
Month to date cooling degree days 5 13  
Year to date cooling degree days 34 34  
Moisture  
Dew Point 33 °F    
Average Humidity 57    
Maximum Humidity 79    
Minimum Humidity 35    
Precipitation  
Precipitation 0.00 in 0.14 in 1.04 in (1974)
Month to date precipitation 1.46 1.57  
Year to date precipitation 11.29 14.22  
Sea Level Pressure  
Sea Level Pressure 30.04 in    
Wind  
Wind Speed 10 mph (WNW)    
Max Wind Speed 23 mph    
Max Gust Speed 35 mph    
Visibility 10 miles    
Events      
T = Trace of Precipitation, MM = Missing Value Source: NWS Daily Summary

Daily Weather History Graph

Daily Weather History Graph

Search for Another Location

Airport or City:

Trip Planner

Search our weather history database for the weather conditions in past years. The results will help you decide how hot, cold, wet, or windy it might be!

Date:

Astronomy

May. 12, 2013 Rise Set
Actual Time 6:14 AM EDT 8:30 PM EDT
Civil Twilight 5:44 AM EDT 9:00 PM EDT
Nautical Twilight 5:07 AM EDT 9:37 PM EDT
Astronomical Twilight 4:27 AM EDT 10:17 PM EDT
Moon 8:08 AM EDT (5/12) 10:55 PM EDT (5/12)
Length of Visible Light 15h 15m
Length of Day
14h 15m
Waxing Crescent, 6% of the Moon is Illuminated
May 12
Waxing Crescent
May 18
First Quarter
May 25
Full
May 31
Last Quarter
Jun 8
New

Hourly Weather History & Observations

Time (EDT) Temp. Windchill Dew Point Humidity Pressure Visibility Wind Dir Wind Speed Gust Speed Precip Events Conditions
12:29 AM 53.6 °F - 48.2 °F 82% 29.94 in 10.0 mi West 9.2 mph - N/A   Overcast
12:53 AM 53.1 °F - 44.1 °F 71% 29.95 in 10.0 mi WNW 12.7 mph 31.1 mph N/A   Overcast
1:16 AM 51.8 °F - 37.4 °F 58% 29.96 in 10.0 mi WNW 12.7 mph 20.7 mph N/A   Overcast
1:53 AM 50.0 °F - 33.1 °F 52% 29.96 in 10.0 mi WNW 11.5 mph 20.7 mph N/A   Overcast
2:53 AM 48.0 °F - 36.0 °F 63% 29.97 in 10.0 mi WNW 9.2 mph 19.6 mph N/A   Overcast
3:53 AM 46.0 °F 42.5 °F 36.0 °F 68% 29.98 in 10.0 mi NW 6.9 mph - N/A   Overcast
4:53 AM 45.0 °F 40.1 °F 35.1 °F 68% 29.99 in 10.0 mi WNW 9.2 mph - N/A   Overcast
5:53 AM 42.1 °F 39.2 °F 34.0 °F 73% 30.01 in 10.0 mi West 4.6 mph - N/A   Partly Cloudy
6:53 AM 41.0 °F - 35.1 °F 79% 30.03 in 10.0 mi Calm Calm - N/A   Clear
7:53 AM 44.1 °F 41.5 °F 36.0 °F 73% 30.04 in 10.0 mi WSW 4.6 mph - N/A   Clear
8:53 AM 46.9 °F - 35.1 °F 63% 30.04 in 10.0 mi Variable 6.9 mph - N/A   Partly Cloudy
9:53 AM 48.9 °F - 32.0 °F 52% 30.04 in 10.0 mi WNW 12.7 mph 19.6 mph N/A   Partly Cloudy
10:53 AM 50.0 °F - 30.0 °F 46% 30.04 in 10.0 mi WNW 12.7 mph 21.9 mph N/A   Mostly Cloudy
11:53 AM 52.0 °F - 28.9 °F 41% 30.04 in 10.0 mi West 15.0 mph 24.2 mph N/A   Mostly Cloudy
12:53 PM 54.0 °F - 30.0 °F 40% 30.04 in 10.0 mi WNW 17.3 mph 28.8 mph N/A   Mostly Cloudy
1:53 PM 54.0 °F - 28.0 °F 37% 30.05 in 10.0 mi WNW 16.1 mph 27.6 mph N/A   Mostly Cloudy
2:53 PM 54.0 °F - 28.0 °F 37% 30.06 in 10.0 mi West 16.1 mph 23.0 mph N/A   Overcast
3:53 PM 54.0 °F - 28.0 °F 37% 30.06 in 10.0 mi West 16.1 mph 21.9 mph N/A   Overcast
4:53 PM 53.1 °F - 28.0 °F 38% 30.06 in 10.0 mi NW 13.8 mph 20.7 mph N/A   Mostly Cloudy
5:53 PM 54.0 °F - 26.1 °F 34% 30.06 in 10.0 mi WNW 18.4 mph 25.3 mph N/A   Partly Cloudy
6:53 PM 54.0 °F - 28.9 °F 38% 30.07 in 10.0 mi NNW 9.2 mph 20.7 mph N/A   Mostly Cloudy
7:53 PM 52.0 °F - 28.0 °F 40% 30.07 in 10.0 mi WNW 9.2 mph - N/A   Scattered Clouds
8:53 PM 48.9 °F - 28.9 °F 46% 30.09 in 10.0 mi WNW 5.8 mph - N/A   Mostly Cloudy
9:53 PM 48.0 °F - 30.0 °F 50% 30.12 in 10.0 mi WNW 6.9 mph - N/A   Overcast
10:53 PM 48.0 °F - 30.0 °F 50% 30.14 in 10.0 mi West 6.9 mph - N/A   Overcast
11:53 PM 45.0 °F 43.5 °F 30.9 °F 58% 30.14 in 10.0 mi WNW 3.5 mph - N/A   Clear